Location: Peach Mountain Observatory
(42.3967°N, 83.9367°W)
Time: 15:39:31
(UTC-05:00)

S-56A Canister/Altair - Pass Details

Date: 25 January 2020
Orbit: 633 x 2499 km, 38.9° (Epoch: 19 February)

Event Time Altitude Azimuth Distance (km) Brightness Sun altitude
Rises 23:36:24 0° 270° (W) 3,343 - -62.0°
Reaches altitude 10° 23:39:09 10° 265° (W) 2,241 - -62.3°
Maximum altitude 23:43:56 52° 190° (S) 808 - -62.8°
Drops below altitude 10° 23:48:13 10° 113° (ESE) 2,010 - -63.3°
Sets 23:50:33 0° 108° (ESE) 2,960 - -63.5°
